призрачный форум

www.prizrak.ws

Информация о пользователе

Привет, Гость! Войдите или зарегистрируйтесь.


Вы здесь » www.prizrak.ws » Software, ОС, программное обеспечение..


Software, ОС, программное обеспечение..

Тем 35851 страница 35900 из 158308

Тема Ответов Просмотров Последнее сообщение
35851 Cimatron E v14.0  Xue Wang
0 5 2020-06-03 23:52:00  Xue Wang
35852 Locaspace  Xue Wang
0 0 2020-06-03 23:40:51  Xue Wang
0 0 2020-06-03 23:40:13  Xue Wang
0 4 2020-06-03 23:39:00  Xue Wang
35855 Lighttools v8.7  Xue Wang
0 0 2020-06-03 23:27:18  Xue Wang
35856 ShipPower v1.0  Xue Wang
0 0 2020-06-03 23:27:10  Xue Wang
0 4 2020-06-03 23:26:11  Xue Wang
35858 Lighttools v8.6  Xue Wang
0 0 2020-06-03 23:13:53  Xue Wang
35859 ShipFlow v6.2  Xue Wang
0 4 2020-06-03 23:13:42  Xue Wang
35860 Ceramill mind v2.2.5  Xue Wang
0 4 2020-06-03 23:12:40  Xue Wang
0 0 2020-06-03 23:00:12  Xue Wang
35862 ShipConstructor v2015  Xue Wang
0 0 2020-06-03 23:00:02  Xue Wang
0 4 2020-06-03 22:58:57  Xue Wang
35864 Leica.MissionPro v12.0  Xue Wang
0 0 2020-06-03 22:46:36  Xue Wang
0 0 2020-06-03 22:46:16  Xue Wang
35866 Sherlock v7.212 Inspect  Xue Wang
0 1 2020-06-03 22:45:43  Xue Wang
35867 Carlson Xport v4.19  Xue Wang
0 5 2020-06-03 22:32:01  Xue Wang
0 1 2020-06-03 22:31:45  Xue Wang
0 1 2020-06-03 22:15:02  Xue Wang
35870 Carel 1tool 2.6.46  Xue Wang
0 5 2020-06-03 22:14:45  Xue Wang
35871 Shell FRED v7.0.0.7  Xue Wang
0 4 2020-06-03 22:13:54  Xue Wang
35872 Cape pack V2.15  Xue Wang
0 1 2020-06-03 21:58:39  Xue Wang
35873 Leica.Captivate v2.2  Xue Wang
0 1 2020-06-03 21:58:29  Xue Wang
0 4 2020-06-03 21:42:45  Xue Wang
0 4 2020-06-03 21:26:02  Xue Wang
0 0 2020-06-03 21:25:36  Xue Wang
0 0 2020-06-03 21:24:17  Xue Wang
35878 Cadence MMSIM v15.10.385  Xue Wang
0 0 2020-06-03 21:07:46  Xue Wang
35879 Seisware v9.1  Xue Wang
0 2 2020-06-03 21:07:09  Xue Wang
35880 Leica MissionPro v11.6.2  Xue Wang
0 0 2020-06-03 21:06:13  Xue Wang
35881 Cadence MDV 18.03 Linux  Xue Wang
0 4 2020-06-03 20:47:27  Xue Wang
35882 Leica Infinity v3.2.1 x64  Xue Wang
0 4 2020-06-03 20:46:35  Xue Wang
35883 SeisMod 4 SIMO4.2  Xue Wang
0 4 2020-06-03 20:18:45  Xue Wang
35884 Leica Geo Office v8.4  Xue Wang
0 4 2020-06-03 20:17:47  Xue Wang
35885 Cadaplus APLUS v18.034  Xue Wang
0 4 2020-06-03 20:08:29  Xue Wang
0 1 2020-06-03 19:58:52  amiana20
35887 SegdToolbox v1.2  Xue Wang
0 0 2020-06-03 19:54:56  Xue Wang
35888 Leica GEOMOS v5.0  Xue Wang
0 0 2020-06-03 19:54:51  Xue Wang
0 5 2020-06-03 19:52:08  amiana20
0 2 2020-06-03 19:46:10  amiana20
35891 CadLink SignLab v10.0  Xue Wang
0 0 2020-06-03 19:44:35  Xue Wang
0 5 2020-06-03 19:37:39  amiana20
0 0 2020-06-03 19:30:44  Xue Wang
0 5 2020-06-03 19:30:26  amiana20
0 0 2020-06-03 19:22:18  amiana20
35896 CablEquity v2013  Xue Wang
0 4 2020-06-03 19:16:55  Xue Wang
35897 NI SystemLink 2020 R1  amiana20
0 2 2020-06-03 19:13:21  amiana20
0 2 2020-06-03 18:48:31  amiana20
0 1 2020-06-03 18:40:01  amiana20
0 0 2020-06-03 18:33:50  Xue Wang

Вы здесь » www.prizrak.ws » Software, ОС, программное обеспечение..